Wind_Speed
12 12 11 11 12 13 14 16 17 17 17 17 16 16 15 15 14 14 13 13 12 13 13 14 14 15 15 15 15 15 15 16 17 17 18 18 19 19 19 20 19 19 19 19 20 20 20 20 20 20 21 21 21 22 22 22 22 22 22 22 21 21 21 21 20 20 20 20 21 21 21 21 21 21 21 20 20 19 19 19 19 19 18 18 18
13 12 12 12 13 14 15 17 18 18 18 17 17 16 16 15 15 14 13 13 12 13 13 14 15 16 16 16 16 17 17 16 16 16 17 18 19 19 18 19 19 18 18 18 19 19 19 19 19 20 20 20 21 21 22 21 21 21 21 21 21 21 21 20 20 20 21 21 21 21 21 21 21 21 20 20 19 19 19 20 20 20 19 20 20
13 13 13 13 14 15 16 17 18 18 19 18 17 17 16 16 15 14 14 13 13 13 14 14 16 17 18 18 18 18 18 17 17 17 17 18 18 18 18 18 18 18 18 18 18 18 18 19 19 19 19 20 21 21 21 21 21 21 21 21 21 21 21 21 21 21 22 22 22 22 22 22 21 20 20 19 19 20 20 20 20 20 20 20 20
13 14 14 15 15 17 18 18 18 18 19 18 17 16 16 16 16 15 15 14 14 14 14 16 17 18 19 19 19 19 18 18 18 18 18 18 18 18 18 17 17 17 17 17 18 18 18 18 19 19 19 20 20 20 20 20 21 21 21 21 21 21 21 22 22 22 22 23 23 22 22 21 20 20 20 20 21 21 22 21 21 21 20 20 20
14 15 16 16 17 17 18 18 18 18 18 18 17 16 15 16 16 16 16 16 15 15 16 17 18 19 19 19 19 18 17 18 18 18 17 18 18 18 18 18 17 17 17 17 18 18 18 18 19 19 20 20 20 20 20 21 21 21 21 21 22 22 22 22 22 23 23 23 22 21 21 20 20 21 21 22 22 22 22 22 21 21 20 20 19
15 16 17 18 18 18 18 19 19 18 18 18 17 16 15 16 16 16 17 17 17 17 18 18 19 19 19 19 19 18 17 18 18 18 17 17 17 17 17 17 17 17 17 18 18 19 19 19 19 20 20 20 20 20 21 21 21 22 22 22 22 22 22 22 23 23 23 22 21 20 20 21 21 22 22 22 22 22 22 22 22 21 21 20 19
16 17 18 18 19 19 18 18 19 18 18 18 17 17 16 16 16 16 16 17 18 18 19 19 20 20 19 19 19 18 18 18 18 18 17 16 16 16 16 17 17 17 18 18 18 19 19 19 19 19 20 20 20 21 21 21 22 22 22 22 22 22 22 22 22 22 21 21 21 21 22 22 22 22 22 22 22 22 22 22 22 22 22 22 22
17 17 18 18 19 19 18 18 19 18 18 17 17 17 17 17 17 17 17 17 18 18 18 19 19 19 19 19 18 17 17 17 17 17 16 16 16 16 17 17 17 17 17 17 18 18 19 19 19 19 19 20 21 21 21 21 22 22 22 22 22 22 22 22 22 21 21 21 22 22 23 23 23 23 23 23 23 23 23 23 23 23 23 24 23
17 17 17 17 18 18 18 18 19 19 18 18 18 18 17 17 17 17 18 18 18 18 18 19 19 19 19 18 18 17 17 17 17 17 17 17 16 17 17 17 17 17 17 17 17 18 19 19 19 20 20 20 21 21 21 22 22 22 22 22 21 21 21 21 21 21 21 22 23 23 24 25 25 25 25 25 25 25 24 24 24 24 24 24 24
18 18 18 17 17 18 18 19 19 19 19 19 18 18 18 18 18 18 18 19 19 20 20 20 20 20 20 19 19 18 18 18 18 18 18 17 17 16 16 16 16 16 16 17 17 18 19 20 20 20 20 20 20 21 21 22 22 21 21 21 21 21 21 21 21 21 22 23 23 24 26 26 26 26 26 26 26 25 25 25 25 25 25 25 25
18 17 17 17 17 18 18 19 19 19 19 19 19 19 19 19 19 19 20 20 21 21 21 21 21 21 21 21 20 19 19 19 18 18 17 17 16 16 16 15 15 15 16 16 17 18 20 20 20 20 20 20 21 21 21 21 21 21 21 21 21 21 21 20 21 21 22 23 24 25 26 27 27 27 26 26 26 26 26 26 27 27 27 27 27
17 17 17 17 17 17 18 19 19 19 20 20 20 20 20 20 20 20 21 21 21 21 22 22 21 21 21 21 20 19 19 18 17 17 16 16 15 15 14 15 15 14 15 17 18 19 20 20 20 20 20 20 20 20 20 20 21 21 21 21 20 20 20 20 20 21 22 23 24 25 26 26 27 27 27 27 27 27 27 28 28 28 28 28 28
16 16 16 16 17 17 17 17 17 18 18 19 20 20 20 20 20 20 20 20 21 21 21 21 21 20 21 20 19 18 18 17 16 16 15 14 13 13 13 13 14 15 16 18 19 19 20 20 20 19 19 18 18 19 19 20 21 21 21 20 19 19 19 20 20 21 23 24 24 25 25 26 26 26 26 27 27 27 28 28 28 28 28 28 28
15 15 15 16 16 16 16 16 16 16 16 17 18 18 18 18 18 19 19 19 19 19 19 20 20 20 19 18 18 17 17 16 16 15 14 13 12 11 11 12 14 15 16 19 19 19 19 19 19 18 17 17 18 19 19 20 20 20 19 19 19 19 19 19 20 21 22 23 23 23 24 24 25 26 26 27 27 27 27 27 27 27 27 28 28
14 14 15 15 15 15 15 15 15 14 14 15 15 16 16 16 16 16 17 17 18 18 18 17 18 18 18 17 16 15 15 14 13 14 13 12 11 10 10 11 13 14 16 19 20 19 19 18 17 17 17 17 17 18 19 19 19 19 18 18 18 18 18 19 20 21 21 21 21 22 23 23 24 25 26 27 27 27 27 27 27 27 27 28 28
13 13 14 14 14 14 13 14 14 13 13 13 14 14 14 14 14 15 14 15 15 16 17 16 16 15 15 15 14 13 13 12 11 11 12 12 11 9 9 10 13 14 15 18 19 19 18 16 16 16 17 17 18 18 18 18 18 17 17 17 18 18 18 19 20 20 20 20 20 21 22 23 24 25 26 27 27 27 27 27 27 28 28 28 28
12 12 13 13 13 13 12 12 13 13 12 12 13 13 13 12 13 13 13 13 13 13 14 15 15 14 12 12 12 12 11 11 10 9 10 11 10 9 8 9 11 13 14 16 17 17 16 15 15 16 17 17 17 17 17 17 17 17 17 17 17 17 18 19 19 19 19 19 20 21 22 23 24 25 26 26 27 27 28 28 29 29 29 28 28
12 12 12 12 12 11 11 11 11 11 11 11 12 12 12 12 12 12 12 11 11 10 11 12 13 13 12 10 9 9 9 9 8 8 8 9 10 9 8 8 10 11 13 14 14 15 15 14 14 15 16 17 17 16 15 15 15 16 16 16 16 17 17 18 18 19 19 19 20 21 22 23 24 25 26 27 27 28 29 29 29 29 29 29 29
12 11 11 11 10 10 10 10 9 9 10 10 10 10 10 11 11 11 10 10 10 9 9 10 11 11 10 10 9 8 8 7 6 5 6 8 8 9 8 8 8 10 11 12 12 13 14 14 14 15 16 16 16 15 14 14 14 15 15 16 16 16 17 17 18 18 19 19 20 21 22 23 24 25 26 27 27 28 29 29 29 30 31 32 32
11 10 10 10 9 9 9 9 8 8 8 8 9 9 9 9 9 10 9 9 10 9 9 9 10 10 9 9 8 7 7 7 6 5 5 7 7 8 8 8 8 8 9 10 10 11 13 14 15 16 16 15 15 14 13 13 13 14 14 15 15 16 16 17 17 18 18 19 19 20 22 23 24 25 26 26 27 27 28 29 30 31 32 33 34
10 9 9 9 8 8 8 8 8 8 8 8 8 8 9 9 8 9 9 8 9 9 9 9 10 10 9 9 8 7 6 7 7 6 5 7 7 7 8 8 8 9 9 9 10 11 12 13 15 16 16 15 14 13 12 12 11 12 13 14 14 15 15 16 17 17 18 18 20 21 22 23 24 24 25 25 26 27 28 30 31 32 33 35 35
9 8 8 7 7 7 7 7 7 7 7 7 7 8 8 8 8 8 8 8 8 9 9 9 9 10 9 9 8 7 6 5 6 6 6 6 6 7 9 9 9 9 9 9 10 11 12 13 15 15 15 14 13 12 11 10 10 11 12 13 13 14 15 15 16 17 18 19 20 21 22 22 23 23 23 24 25 27 28 30 31 33 34 35 35
8 8 7 7 6 6 6 6 6 7 7 6 6 7 7 8 8 8 8 8 8 8 9 9 9 10 10 9 9 8 6 5 5 6 6 5 4 7 11 12 10 10 9 8 9 10 12 13 14 14 14 13 12 10 9 9 9 10 11 12 13 14 15 15 16 17 18 19 20 20 20 21 21 22 22 24 25 27 28 30 31 33 34 34 35
8 8 7 6 6 6 5 5 5 6 6 6 5 5 6 7 7 7 8 8 7 7 8 8 8 9 10 10 9 9 8 6 5 5 6 5 4 6 11 13 11 10 9 8 9 10 12 14 14 14 13 12 11 9 8 8 9 9 10 10 12 14 14 15 16 17 18 18 19 19 19 19 20 21 22 24 25 27 28 30 32 33 34 34 35
8 8 7 7 6 6 6 5 5 5 5 5 5 5 5 6 6 6 7 7 7 6 6 7 8 8 9 9 8 9 10 9 7 6 6 6 5 7 11 12 11 10 9 9 9 11 13 14 14 13 12 11 9 7 7 7 7 8 8 9 12 14 14 16 17 17 17 17 17 18 18 19 20 21 23 24 26 27 29 31 32 34 34 34 35
7 7 7 7 7 7 7 6 6 6 6 6 6 5 5 5 5 6 6 6 6 6 6 7 7 8 8 9 8 8 9 10 8 7 7 8 8 8 10 11 10 10 9 9 10 11 13 14 13 12 11 10 7 6 6 6 7 8 8 9 12 14 14 16 16 16 16 16 17 17 18 19 20 21 23 25 27 29 30 32 33 34 34 35 35
7 6 6 7 7 7 7 7 7 7 7 7 6 6 5 6 6 6 6 6 6 6 6 7 7 7 9 10 10 9 8 11 10 8 8 10 10 10 10 10 10 10 10 9 10 11 12 13 12 11 10 8 6 6 5 6 8 9 9 10 11 12 14 15 15 15 16 16 16 17 17 19 20 22 24 26 28 30 31 31 32 33 34 35 35
6 5 5 6 6 7 8 8 8 8 8 8 7 7 7 7 7 7 6 7 7 7 6 7 7 8 9 10 12 11 9 9 10 9 10 11 11 11 11 11 10 10 10 10 11 11 12 12 11 10 9 7 6 5 5 5 8 9 10 10 10 11 13 14 14 15 16 16 16 17 18 20 21 23 26 27 29 30 30 31 32 33 34 35 35
6 6 5 6 7 8 9 9 10 10 10 10 10 10 9 8 8 8 8 8 8 8 7 7 8 8 8 8 9 11 10 9 9 10 11 13 13 12 11 11 10 9 9 10 10 11 11 11 10 9 8 7 5 4 3 5 7 8 9 9 10 11 13 14 14 15 16 17 17 18 19 20 23 25 27 28 29 30 30 31 32 33 34 35 35
6 7 6 7 9 10 11 11 11 12 12 12 12 11 10 9 8 8 8 8 8 8 8 8 7 8 8 7 7 9 11 11 10 10 11 13 13 12 11 10 10 9 9 10 10 11 11 10 9 8 7 7 5 3 3 5 7 7 9 10 10 12 13 14 15 16 17 17 17 18 20 22 24 26 27 28 29 30 31 32 32 33 33 34 34
7 8 8 8 10 12 12 13 13 14 14 13 12 11 9 9 8 8 8 8 8 8 8 7 7 7 7 8 7 7 8 10 11 10 11 12 12 10 10 9 9 9 9 10 10 11 11 10 8 8 8 7 4 2 2 5 7 9 10 10 10 11 12 14 15 15 16 17 17 18 20 22 24 26 27 28 29 30 31 32 32 33 33 33 33
9 9 9 9 11 13 14 15 15 15 14 13 11 10 9 8 8 7 7 7 7 7 7 7 6 6 6 7 7 7 7 9 11 11 11 11 11 9 8 8 8 8 9 9 10 10 10 9 8 8 8 7 4 2 3 6 8 10 10 10 9 10 12 13 14 15 16 17 18 19 21 23 24 26 27 28 29 30 31 32 32 32 32 32 32
10 11 11 11 12 14 15 16 16 15 14 13 11 10 9 8 8 7 7 7 6 6 7 6 6 5 5 6 6 7 8 9 10 11 11 11 10 9 8 8 8 8 8 9 9 10 10 9 8 8 8 7 4 3 5 7 9 10 11 10 9 10 11 12 13 14 16 17 18 19 21 23 25 26 27 28 29 30 31 32 32 32 32 32 32
11 12 12 12 13 15 16 17 17 16 14 12 11 10 9 8 7 7 6 6 6 6 5 5 5 5 5 5 6 7 8 9 10 11 11 10 9 9 8 8 8 8 8 9 9 10 10 10 9 9 9 7 6 5 6 8 11 12 12 11 10 9 11 12 13 14 15 17 18 19 21 23 25 26 27 28 29 30 31 32 32 32 32 32 32
12 12 13 14 14 16 17 17 17 16 15 13 12 11 10 9 8 7 6 5 5 5 5 4 4 4 4 5 5 5 7 8 9 11 11 10 9 8 8 8 8 9 9 9 9 10 10 11 11 10 10 9 8 7 8 9 11 12 10 10 10 9 11 12 13 14 16 18 19 20 21 23 25 26 27 28 29 30 31 31 32 31 31 32 33
13 13 13 14 15 16 17 18 18 17 15 14 13 12 11 10 8 7 6 5 4 4 4 4 3 3 4 4 4 4 5 6 8 10 11 11 10 9 8 8 9 9 9 9 9 10 11 11 11 11 11 10 10 9 9 10 11 10 9 9 10 10 11 13 14 15 17 19 20 20 21 23 24 25 27 28 29 30 31 32 32 31 31 32 33
13 13 13 14 15 16 17 18 19 18 16 15 13 12 11 10 9 8 7 6 5 4 4 4 4 4 4 4 4 3 4 5 6 8 10 11 11 11 10 9 9 9 9 9 9 10 11 11 12 12 13 12 11 10 10 10 9 9 9 10 11 11 13 14 15 17 18 19 20 20 21 23 24 25 27 28 30 31 31 32 32 31 31 32 32
14 13 14 15 16 17 18 19 20 19 18 16 14 13 11 10 9 8 7 6 6 5 5 5 5 5 5 5 5 5 5 5 5 6 8 10 12 12 12 11 10 9 9 9 9 9 10 11 12 13 14 13 12 11 11 10 10 10 11 11 12 13 14 15 17 18 20 21 21 22 23 24 25 25 27 28 30 31 32 32 32 32 32 32 32
16 14 14 15 17 18 19 19 20 20 19 18 16 15 13 11 10 9 8 7 6 6 6 6 6 6 6 6 6 6 6 6 7 7 7 9 11 13 14 14 13 13 12 11 10 10 11 11 12 13 14 14 13 12 12 12 12 13 14 15 15 14 14 15 17 19 20 21 22 23 24 25 25 26 27 29 30 31 32 33 33 32 32 32 32
17 16 16 16 17 18 19 20 20 21 20 19 18 16 15 13 12 10 8 8 7 7 7 8 8 7 7 7 7 7 7 8 8 8 9 9 10 11 13 15 16 16 16 15 14 13 12 12 13 13 14 14 14 13 13 14 14 15 17 18 18 17 16 16 17 20 21 21 23 24 25 25 26 27 28 29 31 32 33 34 33 33 32 32 32
20 19 18 18 18 18 19 19 20 20 21 20 20 18 17 15 14 12 10 9 9 8 9 9 9 9 9 9 9 9 9 9 9 9 10 11 11 12 13 14 15 17 18 18 18 17 17 16 15 14 14 14 13 14 15 16 16 17 18 19 19 20 19 18 18 20 21 21 23 24 25 26 27 27 29 30 31 33 34 34 34 33 33 32 31
22 21 20 20 19 18 18 19 19 20 20 21 21 20 19 18 16 15 13 11 10 10 10 10 11 11 11 11 11 10 10 10 10 10 11 12 12 14 14 13 14 16 17 18 19 20 20 20 19 18 16 16 15 14 16 17 18 19 19 19 20 21 21 20 19 20 22 23 23 24 25 26 27 27 29 30 31 33 34 35 35 34 33 32 31
23 23 22 21 20 20 19 19 19 19 20 21 22 22 22 21 20 18 16 14 13 13 12 12 12 13 13 13 12 12 12 12 12 12 12 13 13 14 15 15 15 16 16 17 18 20 21 22 22 21 20 20 18 17 18 19 20 21 21 20 21 21 21 21 20 22 24 25 25 26 26 27 28 28 29 31 32 33 34 35 35 34 33 32 32
26 25 24 23 22 22 22 21 20 20 20 21 22 23 23 23 22 21 19 17 16 15 15 14 14 15 15 15 15 14 14 15 14 13 13 13 14 15 16 16 16 16 17 17 18 20 20 20 21 21 21 22 22 21 21 21 22 22 22 22 22 22 22 21 21 22 24 25 26 27 28 29 29 30 31 32 33 34 35 35 36 35 34 33 32
29 28 26 25 25 24 24 23 23 22 22 23 23 23 23 24 23 23 22 20 19 18 18 17 17 16 16 17 17 17 17 17 17 16 15 15 15 15 15 16 17 17 18 19 20 21 21 20 19 20 21 21 23 24 23 23 24 25 24 24 24 23 23 23 22 22 24 25 26 27 28 30 30 31 32 33 34 35 36 36 36 36 35 34 33
30 29 28 28 27 27 26 25 25 25 25 25 25 25 24 24 24 24 24 23 22 21 20 20 19 18 18 18 19 20 20 19 19 19 18 17 17 16 15 16 17 19 19 19 21 21 21 20 20 21 22 21 22 23 23 23 25 26 27 27 26 26 26 25 24 24 25 25 26 27 28 30 31 32 33 34 35 35 36 36 36 37 36 34 33
31 30 30 30 30 29 29 28 27 27 27 28 27 27 26 25 25 25 24 24 24 23 22 22 22 21 20 20 20 22 22 22 22 21 21 20 19 18 17 17 18 19 20 20 21 21 21 21 21 22 23 23 22 22 22 22 23 24 26 27 28 28 28 28 27 26 26 27 27 27 29 31 32 32 33 34 35 36 36 36 36 36 36 35 34
30 30 31 31 31 31 31 30 29 28 29 29 29 28 28 28 27 25 25 25 25 25 24 24 24 24 23 22 22 23 24 24 24 24 23 23 22 20 19 19 20 20 20 21 22 22 21 21 22 23 24 24 23 23 24 23 23 23 23 25 28 29 30 30 29 28 27 27 28 29 29 31 32 33 33 34 36 36 37 37 36 36 36 35 34
29 29 30 30 31 31 31 31 31 30 31 31 31 30 30 30 29 27 26 26 26 26 27 27 26 26 26 25 25 25 25 26 27 27 26 25 24 23 22 22 22 21 21 22 23 23 23 22 22 23 24 24 24 24 24 24 24 23 22 23 25 27 28 29 29 29 28 28 28 29 30 31 32 33 33 34 36 38 38 37 37 37 36 35 34
27 28 29 30 31 31 31 31 31 31 32 33 33 32 32 32 31 29 28 27 27 28 28 28 28 28 28 28 28 27 27 27 28 29 28 27 26 25 25 24 23 22 23 24 25 25 24 23 22 23 24 25 25 25 24 25 24 24 23 24 24 24 24 25 26 26 27 27 28 28 29 30 32 33 33 34 36 39 39 39 38 37 36 35 34
26 26 27 28 29 29 30 30 30 30 31 32 33 33 33 33 32 31 30 29 28 28 29 30 30 31 31 31 31 30 29 30 30 29 29 28 27 27 27 25 23 24 26 27 27 26 25 23 23 24 25 25 25 25 25 25 24 24 24 24 23 22 22 22 23 24 25 26 27 29 30 31 33 35 36 37 37 38 38 38 38 37 36 35 34
Wind_Direction
96 97 97 97 97 98 100 102 105 108 110 112 115 117 116 116 114 112 110 109 109 109 109 109 110 109 108 107 105 105 106 107 109 111 112 112 111 111 112 112 113 113 114 113 113 113 113 113 112 111 108 107 105 103 101 98 96 93 90 87 84 82 79 77 75 74 73 73 72 71 69 67 65 62 60 58 56 55 54 55 55 54 53 51 49
97 97 97 97 97 97 99 101 103 106 110 112 114 115 116 116 115 114 112 111 111 110 110 110 111 111 110 110 110 109 108 108 110 111 112 112 112 113 113 112 112 113 113 114 113 113 114 113 111 110 108 106 104 101 98 96 93 90 87 84 82 80 78 77 76 76 76 75 73 71 69 67 64 62 60 58 56 56 56 55 54 52 51 49 47
97 99 100 99 98 97 98 100 103 105 109 112 112 113 116 117 117 116 115 115 115 114 114 114 113 112 112 113 112 111 111 111 112 113 114 115 115 115 114 113 112 113 113 113 113 113 113 112 110 108 106 103 100 97 95 93 90 86 84 83 82 81 80 80 80 79 77 75 73 70 68 66 63 61 59 57 56 55 54 52 51 49 47 45 43
100 103 103 100 98 97 98 101 104 106 108 111 112 114 116 118 120 120 121 121 118 115 115 114 114 113 113 113 112 112 113 115 115 116 118 118 118 117 115 114 113 113 112 111 111 110 109 108 107 104 101 99 96 95 92 90 87 85 85 84 84 83 83 82 81 79 76 74 72 70 67 64 62 59 56 54 52 51 50 48 46 43 41 40 38
104 106 104 101 99 99 100 104 107 110 112 114 116 118 120 121 122 124 124 123 119 116 115 114 113 112 112 111 111 112 115 117 116 117 118 118 118 116 115 114 112 111 110 110 108 107 105 103 102 99 98 96 95 93 91 89 88 88 88 87 86 85 83 81 79 77 75 74 72 69 66 62 58 55 52 50 49 48 46 43 40 37 35 33 32
107 106 104 103 102 102 103 107 111 115 117 119 121 123 125 125 124 124 124 122 120 118 116 114 111 110 109 110 111 112 114 116 115 116 117 117 116 115 114 112 111 110 109 108 106 105 102 100 98 97 96 95 94 92 91 91 91 90 89 87 86 84 81 79 78 77 76 74 71 67 63 58 55 52 50 48 46 44 41 38 35 33 31 29 27
108 105 103 103 105 106 107 110 113 117 119 122 124 125 127 127 126 126 125 122 120 118 115 112 111 110 110 110 111 113 115 116 116 116 116 116 114 113 112 110 109 108 107 106 105 103 101 99 97 97 96 95 93 93 93 93 92 91 89 87 84 82 80 80 79 78 75 71 67 62 59 55 52 49 46 44 41 39 37 36 36 35 34 32 31
111 107 105 104 106 109 111 113 115 117 120 122 123 124 125 126 127 127 123 120 118 115 112 111 110 109 109 109 110 114 117 117 115 113 112 111 111 110 109 108 107 106 106 104 103 101 100 99 98 97 96 95 94 94 94 94 92 89 86 84 83 82 82 81 79 75 71 66 62 58 54 50 47 43 41 39 38 38 38 39 39 37 35 33 32
113 111 110 108 108 110 113 115 116 117 119 120 121 122 122 123 124 122 119 116 113 111 109 108 107 107 107 108 109 112 114 112 110 109 109 108 108 107 107 106 106 105 104 103 101 101 100 100 99 97 96 96 96 96 95 93 90 87 85 84 83 83 82 78 74 70 66 62 58 54 50 46 43 41 40 39 39 40 39 38 36 33 30 28 27
116 116 115 114 113 112 114 115 115 116 117 118 119 118 118 118 118 116 114 112 111 109 108 108 108 108 107 107 107 108 108 107 106 106 106 106 105 104 104 104 104 104 104 103 102 102 102 101 100 99 98 98 97 96 94 92 89 87 85 85 84 82 78 74 69 65 61 57 53 50 47 44 42 40 39 38 38 37 35 33 30 28 25 24 22
117 117 117 116 114 113 114 114 114 115 117 117 117 116 115 114 114 113 112 112 111 110 110 111 111 110 109 108 107 107 106 105 105 104 104 104 103 102 102 102 102 104 105 105 104 104 103 102 101 100 100 99 97 95 92 90 89 88 86 85 82 79 75 70 66 61 57 53 50 47 44 42 40 38 37 35 34 32 30 29 26 24 22 20 19
118 118 118 116 114 113 112 112 113 115 117 117 117 117 116 115 115 114 113 113 113 113 113 112 111 111 110 109 108 108 106 105 104 104 103 101 100 98 99 100 102 104 106 108 107 106 104 103 102 101 100 99 97 94 91 90 89 88 86 83 80 77 73 68 63 58 53 50 47 44 40 38 36 35 33 32 31 29 27 26 24 22 20 19 17
122 121 120 117 114 113 112 112 113 115 116 116 117 117 117 118 117 115 114 113 114 115 115 113 112 111 110 110 110 110 109 108 106 103 100 97 95 94 95 98 102 105 108 109 108 106 103 102 100 99 98 97 95 93 91 90 89 87 86 82 79 74 70 65 60 54 50 46 43 39 36 34 33 31 31 30 28 27 25 24 23 22 20 18 17
128 126 123 121 118 116 114 114 114 115 115 115 117 118 118 119 118 116 114 114 115 115 115 114 114 113 113 114 114 114 112 111 109 105 100 96 92 91 94 98 102 106 110 109 106 103 100 99 98 97 96 94 94 94 93 91 90 88 85 81 76 71 66 61 56 51 47 43 39 35 33 32 31 30 29 28 27 26 25 24 23 21 20 19 17
133 131 128 125 123 121 120 119 117 117 118 119 119 120 121 122 120 118 117 118 118 116 116 115 114 114 116 117 116 114 111 109 107 106 103 97 90 89 94 100 103 107 110 108 105 102 99 97 97 96 95 95 96 96 95 94 91 88 83 78 72 67 62 57 52 48 44 40 36 34 32 31 30 29 28 27 27 26 25 24 22 21 20 17 15
136 136 134 131 128 126 126 125 123 122 123 124 125 124 124 125 124 123 123 123 122 120 119 118 118 118 119 121 120 118 115 112 107 104 102 97 91 87 90 100 105 108 110 108 106 103 101 99 98 97 97 98 99 98 96 93 90 85 79 73 68 63 58 53 48 44 40 37 35 34 33 31 30 29 28 28 27 26 24 22 20 19 17 15 12
138 138 138 135 132 131 131 131 129 128 128 129 128 128 128 128 129 130 131 129 127 123 121 123 124 123 125 126 125 124 121 117 112 106 101 100 98 93 90 98 106 110 111 109 108 106 103 100 98 99 100 100 100 98 95 91 87 81 75 69 64 58 53 49 44 40 37 36 35 34 33 32 31 29 28 27 26 24 22 20 19 17 15 13 11
138 137 137 135 133 133 133 132 131 131 133 133 130 130 130 129 129 132 135 133 130 128 126 128 129 128 130 131 128 126 121 116 112 107 105 106 105 101 96 100 107 111 113 111 108 105 103 100 98 99 100 101 100 97 93 88 83 77 71 65 59 54 49 44 41 39 38 37 35 34 33 32 31 29 27 26 24 22 21 20 18 16 15 14 13
138 137 135 133 132 133 131 130 131 133 134 133 132 132 130 128 128 129 132 131 132 135 137 138 136 135 137 138 136 134 129 123 117 115 115 112 107 104 102 106 111 115 115 113 109 105 102 100 98 99 100 99 98 95 90 84 77 71 66 60 54 49 44 42 41 41 39 36 35 34 33 32 30 27 25 24 22 21 20 19 18 17 17 16 15
137 134 130 127 126 127 127 126 127 128 129 128 129 131 130 129 129 128 128 129 134 141 147 148 144 144 146 143 140 139 139 137 137 139 127 114 109 106 104 113 121 123 122 119 113 106 101 101 101 101 101 99 97 93 87 80 73 66 60 55 50 45 43 43 43 41 39 37 36 34 32 30 27 25 24 23 22 21 19 19 18 18 18 18 17
136 132 127 123 121 121 121 122 122 122 123 123 124 126 127 128 128 129 130 135 141 146 151 150 149 152 153 148 145 146 149 147 145 146 133 117 117 115 114 122 132 134 134 128 117 107 103 104 105 105 104 102 99 93 86 79 70 62 56 51 46 44 44 44 43 42 40 38 35 32 29 26 25 24 23 22 21 20 19 19 19 19 19 19 18
138 135 132 128 125 124 124 123 121 120 121 124 126 127 126 126 127 129 133 141 147 150 154 154 155 156 154 152 149 148 153 151 145 143 133 121 120 127 130 134 142 144 140 131 117 108 105 106 107 107 105 102 98 91 85 77 67 59 51 46 45 45 45 44 44 43 40 37 32 28 25 23 22 22 21 20 20 19 19 19 20 20 20 19 18
146 145 144 141 138 138 137 133 128 124 123 126 130 129 127 125 128 132 136 143 148 151 154 157 160 158 153 152 149 145 147 148 145 139 128 121 125 138 140 141 148 148 138 126 115 108 107 108 108 107 104 101 96 91 83 71 60 51 44 44 45 44 43 43 43 41 37 33 28 24 21 20 19 18 19 19 18 18 18 19 19 20 20 18 17
157 155 156 154 153 154 150 148 144 136 134 136 136 135 129 128 134 139 142 145 147 151 155 156 162 161 156 155 152 149 146 147 148 134 122 128 144 150 146 144 148 145 134 126 118 112 110 111 111 110 107 103 98 91 76 60 49 39 37 44 44 40 41 41 39 36 31 27 24 21 18 16 15 16 17 18 17 17 17 18 18 19 18 17 16
168 166 165 162 163 165 164 166 164 156 151 148 149 147 138 136 142 144 145 148 149 154 158 159 164 165 161 158 157 156 149 146 149 138 133 142 148 154 151 144 144 144 138 134 128 122 118 118 118 116 112 106 99 86 66 50 36 29 33 44 41 36 36 35 33 29 25 22 19 17 14 12 14 14 15 16 16 16 17 17 17 16 16 15 14
177 172 165 164 167 168 169 173 173 166 161 158 157 156 147 146 149 146 147 149 151 157 162 166 170 169 164 157 158 161 150 143 149 152 150 145 140 150 152 144 144 145 141 136 129 125 124 124 123 120 115 110 102 84 60 36 22 23 33 43 37 30 29 28 26 23 20 17 15 13 11 11 13 13 14 15 15 16 16 15 15 14 14 13 12
178 169 159 159 163 164 165 171 172 166 162 161 159 155 150 147 141 137 141 145 147 156 164 166 166 167 167 162 156 158 153 146 150 159 155 143 141 151 152 147 147 145 141 136 131 129 130 129 128 125 120 115 103 80 53 25 14 18 32 41 34 25 23 22 21 19 17 15 13 11 10 11 13 13 14 14 14 15 14 14 13 12 12 11 10
169 161 153 151 152 153 158 164 165 162 159 158 154 147 140 134 127 123 128 134 139 149 158 157 156 161 170 169 156 149 153 151 150 157 154 144 146 154 153 150 151 148 144 142 138 137 136 135 133 129 126 118 99 77 51 19 7 14 31 39 31 21 20 18 17 16 16 14 12 10 10 12 13 14 14 13 13 13 12 12 11 10 10 9 8
162 157 152 146 142 144 152 156 158 159 156 151 144 136 129 121 114 112 114 122 130 141 148 148 149 153 160 168 156 149 152 152 149 155 152 146 151 156 154 152 153 152 149 146 143 142 141 140 139 135 130 120 106 88 52 6 355 12 33 35 25 17 15 15 14 13 13 12 10 9 11 12 14 14 12 11 10 10 10 10 10 9 9 7 6
165 160 157 150 142 142 148 151 154 153 148 143 137 131 124 116 108 104 104 109 119 132 141 142 144 147 150 158 159 156 156 152 151 155 152 150 155 157 156 156 157 158 156 151 149 149 149 150 146 140 133 126 121 99 37 343 339 6 23 22 14 7 7 10 10 8 6 6 6 7 9 12 13 12 9 8 7 7 7 8 8 7 7 6 4
175 167 164 156 147 145 148 150 151 149 144 141 137 131 124 116 109 102 100 102 109 120 130 136 141 147 151 155 159 163 163 157 153 155 155 155 158 159 159 161 165 167 164 161 159 159 159 159 154 145 141 139 137 122 338 319 333 355 1 2 360 354 359 5 2 359 358 359 2 4 7 10 10 8 6 5 5 4 5 6 5 6 5 3 1
183 173 170 164 154 150 151 152 152 151 148 144 141 135 129 123 114 107 103 101 103 108 117 125 134 147 156 159 159 162 172 169 160 158 158 159 159 163 168 175 178 179 175 171 169 168 167 167 164 157 155 156 161 193 296 313 329 336 336 340 342 341 350 357 353 349 351 353 356 0 4 6 6 4 3 3 2 2 3 3 3 3 3 360 359
190 180 176 171 162 156 156 157 156 156 154 151 147 142 136 131 125 119 114 109 107 108 112 115 121 133 149 163 167 167 175 179 171 163 161 161 164 171 180 189 195 193 188 184 181 178 176 176 176 174 174 180 196 249 291 304 311 315 314 317 324 332 340 344 343 343 344 346 350 356 0 1 360 359 359 359 360 1 1 0 360 0 359 357 357
198 187 182 177 170 164 162 162 162 162 160 158 154 150 145 141 135 130 125 120 119 118 119 122 122 123 134 152 169 176 179 181 179 174 170 169 174 182 190 199 207 209 205 200 195 190 186 187 189 190 194 203 223 255 276 288 299 305 304 301 309 321 325 328 333 336 336 339 346 353 356 355 354 354 354 355 356 358 358 357 357 357 355 354 356
203 195 187 183 177 172 169 168 168 167 166 164 162 158 155 152 148 144 139 134 131 130 131 135 135 133 134 142 156 172 182 186 187 186 182 181 184 191 198 206 214 221 221 216 210 203 198 198 201 204 208 215 229 249 269 286 300 307 306 299 300 307 310 314 323 329 330 334 343 350 351 348 348 347 348 350 352 354 355 354 354 353 352 352 356
208 201 194 190 185 179 176 174 173 174 172 170 169 166 163 161 160 158 155 152 150 149 149 151 154 156 156 156 157 165 179 190 196 199 197 195 196 200 206 213 220 226 230 229 223 217 213 211 213 215 218 224 233 248 268 287 300 308 312 305 298 300 303 309 317 322 325 329 337 342 344 342 341 341 344 346 347 349 351 351 351 350 349 352 355
212 205 198 196 193 187 183 181 180 180 179 178 176 173 171 169 169 169 169 168 168 170 173 173 175 180 184 186 187 186 191 197 203 210 211 210 209 210 214 219 226 231 235 236 232 227 226 225 225 225 226 233 242 252 267 282 293 301 304 298 294 296 299 304 312 316 319 324 330 334 335 334 334 337 340 341 342 343 344 346 347 347 348 351 353
218 211 201 198 197 195 191 188 187 186 185 183 182 181 179 178 178 178 179 182 185 187 193 195 195 196 199 202 207 209 212 215 216 217 220 221 221 222 223 226 230 234 239 241 239 235 234 234 235 234 235 240 248 255 265 275 282 287 289 287 288 291 296 303 310 314 317 320 322 324 325 325 328 332 335 336 336 337 338 340 342 344 347 349 350
220 217 209 202 200 200 198 195 194 193 191 190 189 188 186 186 187 187 187 192 199 204 207 211 212 211 211 213 218 220 220 224 228 228 229 229 229 230 232 234 235 237 241 244 243 242 241 240 240 241 243 247 251 256 263 270 275 280 284 285 287 290 296 305 311 314 315 314 313 314 316 318 322 326 329 330 330 331 332 334 337 340 343 346 348
217 218 216 210 205 204 203 202 200 199 198 196 196 195 194 195 195 196 199 203 208 214 217 220 222 224 222 221 226 230 229 228 231 235 237 237 237 237 237 238 240 242 246 248 247 246 246 245 244 246 248 252 255 258 262 266 269 273 278 283 289 294 299 306 310 311 312 312 311 311 313 316 318 321 323 324 325 327 328 330 333 336 338 341 345
218 218 218 217 213 209 207 207 206 204 202 202 204 204 205 207 207 206 209 212 217 220 222 224 226 229 230 229 233 237 238 237 235 238 242 243 244 243 242 241 242 245 248 250 251 251 251 250 250 249 250 255 259 259 262 264 265 269 274 280 288 295 300 306 308 307 309 311 311 311 313 315 317 319 321 322 323 325 326 327 329 331 333 336 339
222 220 220 221 220 217 213 211 210 207 206 206 209 211 213 215 215 215 217 222 227 229 228 229 230 231 233 234 237 241 245 246 242 240 243 246 248 249 249 248 246 247 250 251 252 254 255 256 257 256 254 256 257 256 257 260 264 268 274 280 286 292 297 303 304 302 303 305 307 308 311 313 315 318 319 320 322 323 324 324 325 327 329 331 334
224 224 223 223 224 223 221 217 213 211 210 211 213 215 217 219 220 221 223 228 233 236 236 235 234 234 235 236 239 243 245 248 249 248 248 250 251 255 257 257 253 252 253 254 255 256 256 257 260 262 260 259 259 255 252 256 262 267 273 278 283 288 293 297 300 299 299 301 303 304 306 308 311 313 315 317 319 320 321 322 323 324 325 328 331
224 225 225 224 224 225 226 224 220 216 214 216 217 217 218 220 222 224 227 231 235 239 242 242 240 239 238 238 240 243 246 249 252 253 254 255 255 257 261 263 261 258 257 257 258 259 259 259 262 265 265 264 263 260 256 256 261 267 271 275 280 284 287 291 294 295 296 298 301 303 304 305 307 309 310 312 314 316 318 320 321 322 323 325 328
222 223 224 224 224 225 227 227 225 222 220 221 221 221 220 221 222 225 228 231 235 239 243 244 245 244 243 242 242 244 247 250 252 254 255 257 258 260 262 265 266 263 259 259 261 264 267 268 267 267 268 267 266 265 263 260 261 265 268 272 277 281 283 287 289 291 293 296 300 303 305 306 307 309 309 310 311 312 314 317 319 321 322 323 326
222 222 223 224 225 226 227 227 227 226 226 226 227 226 225 225 224 225 228 231 233 237 241 243 245 246 245 245 245 245 248 250 251 252 253 255 257 259 262 264 265 264 262 261 263 267 272 275 273 271 271 271 269 269 270 268 266 266 266 268 273 277 279 283 287 290 293 297 301 304 306 308 309 311 311 311 310 310 312 314 317 318 319 321 323
222 222 223 224 225 226 227 227 228 228 229 230 231 231 231 231 229 227 228 231 233 235 238 240 242 243 243 244 244 245 247 249 249 250 251 252 254 255 258 260 261 263 264 264 266 270 274 276 275 273 273 274 273 272 275 276 274 272 270 270 271 273 276 279 284 288 293 297 300 303 305 306 308 310 311 311 310 311 311 312 314 315 316 318 321
223 224 224 225 225 227 227 228 229 230 231 233 234 234 235 236 235 233 232 233 235 236 236 237 237 239 240 242 243 244 246 247 249 250 250 251 251 252 254 257 260 263 266 267 269 273 275 275 275 274 274 276 276 275 276 278 279 279 278 275 273 273 274 277 282 287 291 295 298 300 301 303 304 306 308 310 311 311 311 311 312 313 314 316 319
224 225 225 226 227 228 229 229 228 229 231 234 235 236 236 237 238 238 236 236 236 237 237 236 235 235 237 239 242 244 246 247 248 249 250 251 251 251 252 254 258 262 266 268 269 271 273 275 277 277 276 277 278 277 277 278 280 282 283 280 278 277 277 279 282 287 290 293 295 297 298 299 300 303 306 309 311 311 310 310 310 311 312 313 317
225 225 226 227 229 230 231 231 230 230 231 234 235 236 237 238 239 239 238 237 237 238 238 238 237 235 236 238 240 243 245 246 248 249 250 251 251 252 253 254 256 260 263 265 267 269 271 274 276 277 277 278 279 280 280 280 282 283 284 284 284 285 285 285 287 289 291 292 294 295 297 299 300 304 307 309 310 309 309 309 309 309 310 311 314
225 226 227 228 230 231 233 234 233 233 233 235 237 238 238 239 239 240 240 238 238 239 241 241 240 238 237 238 239 241 243 245 247 249 250 250 250 252 254 255 257 259 260 262 264 267 270 271 272 274 276 279 281 282 283 283 284 286 287 289 292 293 292 292 292 292 292 294 296 297 299 300 302 305 307 308 308 308 307 307 308 308 307 307 310
Height
5924 5924 5924 5924 5924 5924 5924 5925 5925 5925 5926 5926 5926 5927 5927 5928 5928 5928 5928 5928 5928 5929 5929 5930 5930 5930 5930 5931 5931 5932 5932 5932 5932 5932 5932 5933 5932 5932 5932 5932 5932 5933 5933 5933 5933 5933 5933 5933 5933 5934 5934 5934 5934 5934 5935 5935 5935 5934 5934 5934 5933 5933 5933 5932 5932 5931 5931 5930 5930 5929 5929 5928 5927 5926 5925 5924 5923 5922 5921 5920 5919 5917 5916 5915 5913
5926 5926 5925 5925 5925 5925 5925 5926 5926 5926 5927 5927 5928 5928 5929 5929 5929 5929 5929 5929 5930 5930 5931 5931 5931 5931 5932 5932 5933 5933 5933 5934 5934 5934 5934 5934 5934 5934 5934 5934 5934 5934 5935 5935 5935 5935 5935 5935 5935 5935 5936 5936 5936 5936 5936 5936 5936 5936 5935 5935 5935 5935 5934 5934 5933 5933 5932 5932 5931 5930 5930 5929 5928 5927 5926 5925 5924 5923 5922 5921 5919 5918 5917 5916 5914
5927 5927 5927 5927 5926 5926 5926 5927 5927 5928 5928 5929 5929 5930 5930 5931 5931 5931 5931 5931 5931 5932 5932 5933 5933 5933 5933 5934 5934 5935 5935 5935 5936 5936 5936 5936 5936 5936 5936 5936 5936 5936 5936 5936 5936 5936 5937 5937 5937 5937 5937 5938 5938 5938 5938 5938 5937 5937 5937 5937 5936 5936 5935 5935 5935 5934 5934 5933 5932 5932 5931 5930 5929 5928 5927 5926 5925 5924 5923 5921 5920 5919 5918 5916 5915
5929 5929 5929 5928 5928 5928 5928 5928 5929 5929 5930 5930 5931 5932 5932 5932 5933 5933 5933 5933 5933 5934 5934 5934 5934 5934 5935 5935 5936 5936 5937 5937 5937 5937 5938 5938 5937 5937 5937 5937 5938 5938 5938 5938 5938 5938 5938 5939 5939 5939 5939 5939 5939 5939 5939 5939 5939 5939 5939 5938 5938 5937 5937 5937 5936 5936 5935 5934 5933 5933 5932 5931 5930 5929 5928 5927 5926 5925 5923 5922 5921 5920 5918 5917 5916
5931 5931 5931 5930 5930 5929 5930 5930 5931 5931 5931 5932 5933 5934 5934 5934 5935 5935 5935 5935 5935 5936 5936 5936 5936 5936 5936 5936 5937 5938 5939 5939 5939 5939 5939 5939 5939 5939 5939 5939 5939 5940 5940 5940 5940 5940 5940 5941 5941 5941 5941 5940 5940 5940 5940 5940 5940 5940 5940 5939 5939 5939 5938 5938 5937 5937 5936 5935 5934 5934 5933 5932 5931 5930 5929 5928 5927 5925 5924 5923 5922 5921 5919 5918 5916
5932 5932 5932 5932 5932 5932 5932 5932 5933 5933 5933 5934 5934 5935 5936 5936 5936 5937 5937 5937 5937 5938 5938 5938 5938 5938 5938 5938 5939 5940 5940 5941 5940 5941 5941 5941 5941 5941 5941 5941 5941 5941 5942 5942 5942 5942 5942 5942 5942 5942 5942 5942 5942 5942 5941 5941 5941 5941 5941 5941 5941 5940 5940 5939 5939 5938 5937 5936 5936 5935 5934 5933 5932 5931 5930 5929 5928 5926 5925 5924 5922 5921 5920 5918 5917
5934 5934 5934 5934 5933 5934 5934 5934 5935 5935 5935 5936 5936 5937 5938 5938 5938 5939 5939 5939 5939 5940 5940 5940 5940 5940 5940 5940 5941 5941 5942 5942 5942 5942 5942 5943 5943 5943 5943 5943 5943 5943 5943 5943 5943 5943 5943 5943 5943 5943 5943 5943 5943 5943 5943 5943 5943 5943 5942 5942 5942 5942 5941 5941 5940 5939 5939 5938 5937 5936 5935 5934 5933 5932 5931 5930 5929 5927 5926 5924 5923 5922 5920 5919 5917
5935 5935 5935 5935 5935 5935 5936 5936 5936 5937 5937 5938 5938 5938 5939 5940 5940 5940 5941 5941 5941 5941 5942 5942 5942 5942 5942 5942 5943 5944 5944 5944 5944 5944 5944 5944 5944 5944 5944 5944 5944 5944 5944 5944 5945 5944 5944 5944 5944 5945 5945 5944 5944 5944 5944 5944 5944 5944 5944 5944 5943 5943 5942 5942 5941 5941 5940 5939 5938 5937 5937 5936 5935 5933 5932 5931 5929 5928 5927 5925 5924 5923 5921 5919 5918
5937 5937 5937 5937 5937 5937 5937 5938 5938 5938 5939 5939 5940 5940 5941 5941 5942 5942 5942 5942 5943 5943 5943 5943 5944 5944 5944 5945 5945 5946 5946 5946 5946 5946 5946 5946 5947 5946 5946 5946 5946 5946 5946 5946 5946 5946 5945 5946 5946 5946 5946 5946 5946 5946 5946 5946 5946 5945 5945 5945 5945 5944 5944 5943 5943 5942 5941 5940 5940 5939 5938 5937 5936 5934 5933 5932 5930 5929 5927 5926 5925 5923 5922 5920 5919
5938 5938 5939 5939 5939 5939 5939 5939 5940 5940 5941 5941 5942 5942 5942 5943 5943 5944 5944 5944 5944 5945 5945 5945 5946 5946 5947 5947 5948 5949 5949 5949 5948 5948 5948 5949 5949 5949 5948 5948 5948 5947 5947 5947 5947 5947 5947 5947 5947 5947 5947 5948 5948 5947 5947 5947 5947 5947 5946 5946 5946 5945 5945 5945 5944 5943 5942 5942 5941 5940 5939 5938 5937 5935 5934 5933 5931 5930 5928 5927 5925 5924 5922 5920 5919
5939 5940 5940 5940 5941 5941 5941 5941 5941 5942 5943 5943 5944 5944 5944 5945 5945 5945 5946 5946 5946 5947 5947 5948 5948 5948 5949 5949 5950 5951 5951 5951 5951 5951 5951 5951 5950 5950 5950 5950 5949 5949 5948 5948 5948 5948 5948 5948 5949 5949 5949 5949 5949 5949 5949 5948 5948 5948 5948 5947 5947 5947 5946 5946 5945 5944 5944 5943 5942 5941 5940 5939 5938 5936 5935 5934 5932 5931 5929 5928 5926 5924 5922 5921 5919
5941 5941 5942 5942 5942 5942 5942 5943 5943 5944 5944 5945 5945 5946 5946 5947 5947 5947 5948 5948 5949 5949 5949 5950 5950 5950 5951 5951 5952 5953 5953 5953 5953 5953 5952 5952 5952 5952 5952 5951 5950 5950 5950 5949 5950 5950 5950 5950 5950 5951 5951 5951 5951 5950 5950 5950 5949 5949 5949 5949 5949 5948 5948 5947 5946 5946 5945 5944 5943 5942 5941 5940 5939 5937 5936 5934 5933 5932 5930 5928 5926 5925 5923 5921 5919
5943 5943 5943 5943 5943 5944 5944 5944 5945 5946 5946 5946 5947 5947 5948 5948 5949 5949 5950 5950 5951 5951 5951 5951 5952 5952 5952 5953 5954 5954 5954 5954 5954 5954 5954 5954 5954 5954 5954 5953 5952 5951 5951 5951 5951 5952 5952 5952 5952 5952 5953 5952 5952 5952 5951 5951 5950 5950 5950 5950 5950 5949 5949 5948 5947 5947 5946 5945 5944 5943 5942 5941 5940 5938 5937 5935 5934 5932 5931 5929 5927 5926 5924 5922 5920
5944 5945 5945 5945 5945 5945 5946 5946 5946 5947 5947 5948 5948 5949 5949 5950 5950 5951 5951 5952 5952 5953 5953 5953 5953 5954 5954 5955 5955 5956 5956 5956 5956 5956 5955 5956 5956 5956 5955 5955 5954 5953 5953 5953 5953 5954 5954 5954 5954 5954 5954 5954 5954 5953 5952 5952 5952 5951 5951 5951 5950 5950 5950 5949 5949 5948 5947 5946 5945 5944 5943 5942 5941 5939 5938 5936 5935 5933 5932 5930 5929 5927 5925 5923 5921
5946 5946 5946 5946 5946 5947 5947 5947 5948 5948 5949 5949 5950 5950 5951 5952 5952 5952 5953 5953 5954 5954 5954 5954 5955 5955 5955 5956 5956 5957 5957 5957 5957 5957 5957 5957 5957 5957 5957 5956 5955 5955 5955 5954 5954 5955 5955 5955 5955 5955 5955 5955 5955 5954 5953 5953 5952 5952 5952 5951 5951 5951 5951 5950 5950 5949 5948 5947 5946 5945 5944 5943 5942 5940 5939 5937 5936 5935 5933 5931 5930 5928 5926 5924 5922
5947 5947 5948 5948 5948 5948 5948 5949 5949 5950 5950 5951 5951 5952 5952 5953 5954 5954 5955 5955 5955 5955 5955 5955 5956 5956 5957 5957 5957 5958 5958 5958 5958 5958 5957 5957 5957 5958 5958 5957 5957 5957 5957 5956 5956 5956 5956 5956 5956 5956 5956 5956 5956 5955 5955 5954 5953 5953 5953 5952 5952 5952 5952 5951 5951 5950 5949 5948 5947 5946 5945 5944 5943 5941 5940 5939 5937 5936 5934 5932 5930 5928 5926 5925 5923
5948 5949 5949 5949 5949 5949 5950 5950 5950 5951 5952 5952 5953 5953 5954 5954 5955 5956 5956 5956 5956 5956 5956 5956 5957 5957 5958 5958 5959 5959 5959 5959 5959 5959 5958 5958 5958 5958 5959 5959 5958 5958 5958 5958 5957 5956 5957 5957 5957 5957 5957 5957 5957 5956 5956 5955 5955 5954 5954 5954 5953 5953 5953 5952 5952 5951 5950 5949 5948 5947 5946 5945 5944 5942 5941 5940 5938 5937 5935 5933 5931 5929 5927 5925 5923
5949 5950 5950 5950 5950 5951 5951 5951 5952 5952 5953 5953 5954 5954 5955 5955 5956 5957 5957 5957 5957 5957 5957 5957 5958 5958 5958 5959 5959 5960 5960 5960 5960 5960 5959 5959 5959 5959 5959 5960 5959 5959 5959 5959 5958 5958 5957 5957 5958 5958 5958 5958 5958 5958 5957 5957 5956 5955 5955 5955 5955 5954 5954 5954 5953 5952 5951 5950 5949 5948 5947 5946 5945 5943 5942 5940 5939 5937 5935 5933 5932 5930 5928 5926 5923
5950 5951 5951 5951 5951 5952 5952 5952 5952 5953 5953 5954 5954 5955 5955 5956 5956 5957 5958 5958 5958 5958 5958 5958 5958 5959 5959 5959 5960 5960 5960 5960 5960 5960 5960 5959 5959 5959 5960 5960 5961 5961 5960 5960 5960 5959 5958 5958 5958 5959 5959 5959 5959 5959 5959 5958 5958 5957 5957 5956 5956 5956 5955 5955 5954 5953 5952 5951 5950 5949 5948 5947 5946 5944 5942 5941 5940 5938 5936 5934 5932 5930 5928 5926 5923
5951 5951 5952 5952 5952 5952 5952 5953 5953 5953 5954 5954 5955 5955 5956 5956 5957 5957 5958 5958 5958 5958 5959 5959 5959 5959 5960 5960 5960 5961 5961 5960 5960 5961 5961 5960 5960 5960 5960 5961 5962 5962 5962 5961 5961 5960 5959 5959 5959 5960 5960 5960 5960 5960 5960 5959 5959 5959 5958 5958 5957 5957 5956 5956 5955 5954 5953 5952 5951 5950 5949 5948 5946 5945 5943 5942 5941 5939 5937 5935 5933 5931 5928 5926 5923
5951 5952 5952 5953 5953 5953 5953 5954 5954 5954 5954 5955 5955 5956 5956 5956 5957 5957 5958 5959 5959 5959 5960 5960 5960 5960 5961 5961 5961 5961 5961 5961 5961 5961 5961 5961 5961 5960 5961 5962 5963 5963 5963 5963 5962 5962 5961 5961 5961 5961 5961 5961 5961 5961 5961 5961 5960 5960 5959 5959 5958 5958 5957 5957 5956 5955 5954 5953 5952 5951 5949 5948 5947 5946 5944 5943 5942 5940 5938 5936 5934 5931 5929 5926 5924
5951 5952 5953 5953 5954 5954 5954 5955 5955 5955 5955 5955 5956 5956 5957 5957 5957 5958 5958 5959 5959 5959 5960 5960 5960 5961 5961 5961 5961 5961 5961 5961 5961 5961 5961 5961 5961 5961 5962 5963 5964 5964 5964 5964 5963 5963 5963 5963 5963 5963 5963 5963 5963 5962 5962 5962 5961 5961 5960 5960 5960 5959 5958 5957 5956 5956 5955 5954 5952 5951 5950 5949 5948 5947 5945 5944 5942 5940 5939 5936 5934 5932 5929 5927 5925
5952 5952 5953 5954 5954 5955 5955 5955 5955 5955 5956 5956 5956 5957 5957 5957 5958 5958 5959 5959 5959 5960 5960 5960 5960 5961 5961 5961 5961 5961 5961 5962 5962 5961 5961 5961 5962 5963 5963 5963 5964 5964 5965 5965 5965 5964 5964 5964 5964 5964 5964 5964 5964 5963 5963 5963 5962 5962 5961 5961 5961 5960 5959 5958 5957 5956 5955 5954 5953 5952 5951 5950 5949 5948 5946 5945 5943 5941 5939 5937 5935 5932 5930 5928 5926
5952 5953 5953 5954 5954 5955 5955 5955 5956 5956 5956 5957 5957 5957 5957 5958 5958 5959 5959 5959 5959 5960 5960 5960 5960 5961 5961 5961 5961 5961 5961 5962 5962 5961 5961 5962 5963 5964 5964 5964 5964 5965 5965 5966 5966 5965 5965 5965 5965 5965 5965 5965 5965 5964 5964 5964 5963 5963 5963 5963 5962 5961 5960 5959 5958 5957 5955 5954 5953 5953 5952 5951 5950 5948 5947 5945 5944 5942 5940 5938 5936 5933 5931 5929 5927
5952 5953 5954 5954 5954 5955 5955 5955 5956 5956 5957 5957 5957 5957 5958 5958 5958 5959 5959 5959 5959 5960 5960 5960 5960 5961 5961 5961 5961 5961 5961 5961 5962 5962 5962 5963 5964 5965 5965 5965 5965 5966 5966 5966 5966 5966 5966 5966 5966 5965 5965 5965 5965 5965 5965 5964 5964 5964 5964 5963 5962 5961 5960 5959 5958 5957 5956 5955 5954 5954 5953 5952 5951 5949 5948 5946 5944 5943 5940 5938 5936 5934 5932 5930 5928
5952 5953 5953 5954 5954 5955 5955 5955 5956 5956 5957 5957 5958 5958 5958 5958 5959 5959 5959 5959 5959 5960 5960 5960 5961 5961 5961 5961 5961 5962 5961 5961 5962 5962 5963 5964 5964 5965 5966 5966 5966 5966 5966 5967 5967 5967 5967 5966 5966 5966 5966 5966 5966 5966 5966 5965 5965 5964 5964 5964 5963 5962 5961 5960 5959 5958 5957 5956 5955 5955 5954 5953 5951 5950 5948 5946 5945 5943 5941 5939 5937 5934 5932 5930 5928
5951 5952 5953 5954 5954 5954 5955 5955 5956 5956 5957 5957 5958 5958 5958 5959 5959 5958 5959 5959 5959 5960 5960 5960 5960 5961 5961 5961 5962 5962 5962 5962 5963 5964 5964 5964 5964 5965 5966 5966 5966 5967 5967 5967 5967 5967 5967 5967 5967 5967 5967 5967 5967 5966 5966 5966 5965 5965 5964 5963 5963 5962 5962 5961 5960 5959 5958 5957 5957 5956 5955 5953 5952 5950 5948 5947 5945 5943 5941 5939 5937 5935 5933 5930 5928
5951 5952 5952 5953 5953 5954 5954 5955 5955 5956 5956 5957 5957 5958 5959 5959 5959 5958 5959 5959 5959 5960 5960 5960 5960 5961 5961 5961 5961 5962 5963 5963 5963 5964 5964 5964 5964 5965 5966 5966 5967 5967 5967 5967 5967 5968 5968 5968 5968 5968 5968 5967 5967 5967 5966 5966 5965 5965 5964 5964 5963 5963 5962 5961 5961 5960 5959 5958 5957 5956 5955 5954 5952 5950 5948 5947 5945 5944 5942 5940 5938 5935 5933 5931 5929
5950 5951 5951 5952 5953 5953 5953 5954 5955 5955 5956 5957 5958 5958 5958 5959 5959 5959 5959 5959 5959 5960 5960 5960 5961 5961 5961 5962 5961 5961 5962 5963 5963 5964 5964 5964 5965 5965 5966 5966 5967 5967 5967 5967 5968 5968 5968 5968 5968 5968 5968 5968 5967 5967 5967 5966 5965 5965 5965 5964 5964 5963 5963 5962 5961 5960 5959 5959 5958 5957 5955 5954 5952 5950 5949 5947 5946 5944 5942 5940 5938 5936 5933 5931 5929
5950 5950 5951 5951 5952 5952 5953 5953 5954 5955 5956 5957 5958 5958 5958 5959 5959 5959 5959 5959 5959 5960 5960 5961 5961 5961 5961 5962 5962 5962 5962 5962 5963 5964 5964 5964 5965 5965 5966 5966 5966 5967 5967 5968 5968 5968 5969 5969 5969 5968 5968 5968 5968 5967 5967 5966 5966 5965 5965 5965 5964 5963 5963 5962 5961 5960 5960 5959 5958 5957 5955 5954 5952 5950 5949 5948 5946 5944 5943 5940 5938 5936 5934 5932 5930
5949 5950 5950 5951 5951 5952 5952 5953 5953 5954 5956 5957 5957 5958 5958 5959 5959 5959 5959 5960 5960 5960 5960 5961 5961 5961 5961 5962 5962 5962 5963 5962 5963 5963 5964 5964 5965 5965 5966 5966 5966 5967 5967 5968 5968 5968 5969 5969 5968 5968 5968 5968 5968 5967 5967 5966 5966 5965 5965 5965 5964 5964 5963 5962 5961 5960 5960 5959 5958 5956 5955 5953 5952 5951 5950 5948 5947 5945 5943 5941 5939 5937 5934 5933 5931
5948 5949 5950 5950 5951 5952 5952 5953 5953 5954 5955 5956 5957 5958 5958 5959 5959 5960 5960 5960 5960 5960 5960 5961 5961 5961 5962 5962 5962 5962 5963 5963 5963 5963 5964 5964 5965 5966 5966 5966 5967 5967 5967 5968 5968 5968 5969 5968 5968 5968 5968 5968 5968 5967 5967 5966 5966 5965 5965 5965 5965 5964 5963 5962 5961 5960 5959 5958 5957 5956 5954 5953 5952 5951 5950 5948 5947 5945 5943 5941 5939 5937 5935 5934 5932
5947 5948 5949 5950 5950 5951 5952 5953 5953 5954 5955 5956 5957 5958 5958 5959 5960 5960 5961 5961 5961 5961 5961 5961 5961 5961 5962 5962 5962 5962 5963 5964 5964 5963 5964 5964 5965 5966 5966 5967 5967 5967 5968 5968 5968 5968 5968 5968 5968 5968 5968 5968 5967 5967 5967 5966 5966 5966 5965 5965 5965 5964 5962 5962 5961 5960 5959 5958 5956 5955 5954 5953 5952 5951 5950 5948 5947 5945 5943 5941 5939 5937 5936 5934 5932
5946 5947 5948 5949 5950 5951 5952 5953 5953 5954 5955 5956 5957 5958 5959 5959 5960 5960 5961 5961 5961 5961 5961 5961 5961 5962 5962 5962 5962 5963 5963 5964 5964 5964 5964 5964 5965 5965 5966 5966 5967 5967 5968 5968 5968 5968 5968 5968 5968 5968 5968 5967 5967 5967 5967 5966 5966 5966 5965 5965 5964 5964 5962 5962 5961 5959 5958 5957 5956 5955 5954 5953 5952 5951 5950 5948 5946 5945 5943 5941 5939 5937 5936 5934 5931
5945 5946 5947 5948 5949 5950 5951 5952 5953 5954 5955 5956 5957 5958 5958 5959 5960 5960 5961 5961 5962 5962 5962 5962 5962 5962 5962 5962 5962 5963 5963 5963 5963 5964 5964 5964 5965 5965 5966 5966 5966 5967 5967 5968 5968 5968 5968 5968 5968 5968 5967 5967 5967 5967 5967 5966 5966 5965 5965 5964 5964 5963 5962 5961 5960 5959 5958 5957 5955 5954 5953 5953 5952 5951 5950 5948 5946 5945 5943 5941 5939 5937 5936 5934 5931
5944 5945 5946 5947 5948 5949 5950 5951 5952 5953 5954 5955 5956 5957 5958 5959 5959 5960 5960 5961 5961 5962 5962 5962 5962 5962 5962 5962 5962 5962 5963 5963 5963 5964 5964 5964 5964 5965 5965 5966 5966 5966 5967 5967 5967 5968 5968 5968 5967 5967 5967 5967 5967 5967 5966 5966 5966 5965 5964 5964 5963 5962 5961 5960 5960 5959 5957 5956 5955 5954 5954 5953 5952 5951 5950 5948 5946 5945 5943 5941 5939 5937 5935 5933 5930
5943 5944 5945 5946 5947 5948 5949 5950 5951 5952 5953 5955 5955 5956 5957 5958 5959 5959 5960 5960 5961 5961 5961 5962 5962 5962 5962 5962 5962 5962 5962 5963 5963 5963 5964 5964 5964 5965 5965 5965 5965 5966 5966 5966 5967 5967 5967 5967 5967 5966 5966 5966 5966 5966 5966 5966 5965 5965 5964 5963 5962 5962 5961 5960 5959 5958 5957 5956 5954 5954 5953 5953 5952 5951 5950 5948 5946 5944 5943 5941 5939 5937 5935 5932 5930
5941 5943 5944 5945 5946 5947 5948 5949 5950 5951 5952 5953 5954 5955 5956 5957 5958 5959 5959 5960 5960 5961 5961 5961 5961 5961 5961 5961 5962 5962 5962 5962 5963 5963 5963 5964 5964 5964 5964 5965 5965 5965 5965 5966 5966 5966 5966 5966 5966 5965 5965 5965 5965 5966 5966 5965 5965 5964 5963 5962 5962 5961 5960 5959 5958 5957 5956 5955 5954 5954 5953 5952 5951 5950 5949 5947 5945 5944 5942 5940 5939 5937 5934 5932 5930
5940 5941 5942 5943 5944 5945 5946 5947 5948 5950 5951 5952 5953 5954 5955 5956 5957 5958 5958 5959 5959 5960 5960 5960 5961 5961 5961 5961 5961 5961 5961 5962 5962 5962 5963 5963 5963 5964 5964 5964 5964 5964 5964 5965 5965 5965 5965 5965 5964 5964 5964 5964 5965 5965 5965 5964 5963 5963 5962 5961 5960 5960 5960 5959 5958 5957 5956 5955 5954 5953 5953 5951 5950 5949 5948 5946 5944 5943 5941 5939 5937 5935 5933 5931 5929
5938 5939 5940 5941 5942 5943 5944 5946 5947 5948 5949 5951 5952 5953 5954 5954 5955 5956 5957 5958 5958 5959 5959 5959 5959 5960 5960 5960 5960 5960 5961 5961 5961 5961 5962 5962 5962 5963 5963 5963 5963 5963 5963 5963 5963 5963 5963 5963 5963 5963 5963 5963 5964 5964 5963 5963 5962 5961 5960 5959 5958 5959 5959 5959 5958 5956 5955 5954 5953 5952 5951 5950 5949 5948 5946 5945 5943 5941 5939 5937 5936 5934 5932 5930 5928
5936 5937 5938 5939 5940 5942 5943 5944 5945 5946 5948 5949 5950 5951 5952 5953 5954 5954 5955 5956 5957 5958 5958 5958 5958 5959 5959 5959 5960 5959 5959 5960 5960 5960 5960 5961 5961 5961 5961 5961 5962 5962 5962 5962 5962 5962 5962 5962 5962 5962 5962 5962 5963 5963 5962 5961 5960 5960 5959 5958 5957 5957 5957 5958 5957 5955 5954 5953 5952 5951 5950 5948 5947 5946 5944 5943 5941 5939 5937 5935 5934 5932 5931 5929 5927
5934 5935 5936 5937 5939 5940 5941 5942 5943 5944 5946 5947 5948 5949 5950 5951 5952 5953 5953 5954 5955 5956 5956 5957 5957 5957 5958 5958 5958 5959 5959 5959 5959 5959 5959 5959 5959 5959 5959 5960 5960 5960 5960 5960 5960 5960 5960 5960 5960 5960 5961 5961 5961 5961 5960 5959 5959 5958 5958 5957 5957 5956 5956 5956 5956 5954 5953 5952 5951 5950 5948 5947 5946 5945 5943 5941 5940 5938 5936 5934 5932 5931 5929 5928 5926
5932 5933 5935 5936 5937 5938 5939 5940 5941 5942 5943 5945 5945 5946 5948 5949 5950 5951 5951 5952 5953 5954 5955 5955 5955 5956 5956 5957 5957 5957 5958 5958 5957 5958 5958 5958 5958 5958 5958 5958 5958 5958 5958 5958 5958 5958 5958 5958 5958 5959 5959 5959 5959 5959 5959 5958 5958 5957 5957 5956 5956 5955 5955 5954 5954 5953 5951 5950 5949 5948 5947 5946 5945 5944 5942 5940 5938 5936 5935 5933 5931 5930 5928 5926 5925
5930 5931 5932 5934 5935 5936 5937 5938 5939 5940 5941 5942 5943 5944 5945 5946 5947 5948 5949 5950 5951 5952 5953 5954 5954 5954 5955 5955 5956 5956 5956 5956 5956 5956 5956 5956 5956 5956 5956 5956 5956 5956 5956 5956 5956 5956 5956 5956 5956 5957 5957 5957 5956 5957 5957 5957 5956 5956 5956 5955 5955 5954 5953 5953 5952 5951 5950 5949 5948 5947 5945 5944 5943 5942 5940 5939 5937 5935 5933 5931 5929 5928 5926 5925 5923
5926 5928 5930 5931 5932 5933 5934 5935 5936 5937 5938 5939 5940 5941 5942 5943 5945 5946 5947 5948 5949 5950 5951 5952 5952 5953 5953 5954 5954 5954 5955 5955 5955 5955 5955 5955 5955 5955 5954 5954 5954 5954 5954 5953 5953 5953 5953 5954 5954 5954 5954 5954 5954 5954 5954 5955 5955 5954 5954 5953 5953 5952 5951 5951 5951 5950 5949 5948 5947 5945 5944 5942 5941 5940 5938 5937 5935 5933 5931 5929 5927 5925 5924 5922 5921
5923 5925 5927 5928 5929 5930 5932 5933 5933 5934 5935 5936 5936 5938 5939 5940 5942 5943 5944 5945 5946 5948 5949 5949 5950 5951 5951 5952 5952 5952 5952 5953 5953 5953 5953 5953 5953 5953 5953 5952 5952 5952 5951 5951 5951 5951 5951 5951 5952 5952 5951 5951 5952 5952 5952 5952 5952 5952 5952 5951 5951 5950 5949 5949 5948 5948 5947 5946 5945 5944 5942 5940 5939 5938 5937 5935 5933 5931 5929 5927 5925 5923 5922 5920 5919
5920 5922 5923 5924 5926 5927 5928 5930 5931 5932 5932 5933 5933 5934 5936 5937 5938 5940 5941 5942 5943 5945 5946 5947 5947 5948 5949 5949 5949 5949 5949 5950 5950 5950 5950 5950 5951 5951 5951 5951 5950 5950 5950 5950 5949 5949 5949 5950 5950 5949 5949 5949 5949 5949 5949 5949 5949 5949 5949 5949 5948 5948 5947 5946 5946 5946 5945 5944 5943 5942 5940 5938 5937 5936 5935 5932 5930 5928 5926 5925 5923 5921 5919 5918 5917
5917 5918 5920 5921 5922 5924 5925 5926 5928 5929 5930 5930 5930 5932 5933 5934 5935 5937 5938 5939 5940 5942 5943 5944 5944 5945 5945 5946 5946 5946 5946 5947 5947 5947 5947 5947 5948 5948 5948 5948 5948 5948 5948 5948 5948 5948 5948 5948 5947 5947 5946 5946 5947 5947 5946 5946 5946 5946 5946 5946 5945 5944 5944 5943 5943 5943 5943 5942 5941 5940 5938 5936 5934 5934 5933 5931 5928 5926 5924 5922 5921 5919 5917 5916 5914
5914 5915 5917 5918 5919 5920 5921 5923 5925 5926 5926 5927 5928 5929 5930 5931 5932 5934 5935 5936 5937 5939 5939 5940 5941 5941 5942 5942 5943 5943 5943 5943 5943 5943 5944 5944 5945 5945 5945 5946 5946 5946 5946 5946 5946 5946 5946 5946 5946 5945 5944 5944 5944 5944 5944 5944 5944 5944 5944 5943 5942 5941 5941 5941 5941 5941 5941 5940 5939 5937 5936 5934 5932 5931 5930 5929 5926 5923 5921 5920 5918 5916 5915 5913 5912
5910 5912 5913 5914 5915 5917 5918 5920 5921 5922 5923 5923 5924 5925 5926 5927 5928 5930 5932 5933 5934 5935 5936 5937 5937 5938 5938 5939 5939 5939 5940 5940 5940 5940 5941 5941 5942 5942 5942 5943 5944 5944 5944 5943 5943 5944 5944 5944 5944 5943 5943 5942 5942 5941 5941 5941 5941 5941 5940 5940 5939 5939 5939 5939 5939 5939 5938 5937 5936 5934 5933 5931 5929 5928 5927 5926 5924 5922 5919 5917 5916 5914 5912 5911 5909
5907 5909 5910 5911 5913 5914 5915 5916 5918 5919 5920 5920 5921 5922 5922 5923 5925 5926 5927 5929 5931 5932 5932 5933 5933 5934 5934 5935 5935 5936 5936 5936 5936 5936 5937 5938 5938 5938 5939 5940 5941 5941 5940 5940 5941 5941 5941 5942 5941 5941 5940 5940 5939 5939 5938 5938 5938 5938 5937 5937 5937 5937 5937 5936 5936 5935 5935 5934 5933 5931 5930 5928 5926 5925 5923 5922 5921 5919 5917 5915 5913 5912 5910 5908 5907